OpenBCM V1.07b12 (Linux)

Packet Radio Mailbox

DB0FHN

[JN59NK Nuernberg]

 Login: GUEST





  
UA9FBV > KEPS     04.05.03 20:40l 206 Lines 5442 Bytes #999 (0) @ AMSAT
BID : ORB03121.W
Read: DB0FHN GUEST
Subj: Orbital Elements  03121.WEATHER
Path: DB0FHN<DB0ZWI<DB0HOT<OK0PKL<OK0PPL<RZ6HXA<UA9FBV
Sent: 030502/0522Z @:UA9FBV.PRM.RUS.AS #:34357 [Perm] GATEWAY $:ORB03121.W
From: UA9FBV@UA9FBV.PRM.RUS.AS
To  : KEPS@AMSAT

HR AMSAT ORBITAL ELEMENTS FOR WEATHER SATELLITES
FROM WA5QGD FORT WORTH,TX May 1, 2003
SEND SUBSCRIBE/UNSUBSCRIBE TO majordomo@amsat.org ONLY
BID: ORB03121.W
TO ALL RADIO AMATEURS BT

Satellite: NOAA-10
Catalog number: 16969
Epoch time:      03121.48416447
Element set:     755
Inclination:       98.7361 deg
RA of node:       115.4884 deg
Eccentricity:    0.0011578
Arg of perigee:   235.8020 deg
Mean anomaly:     124.2063 deg
Mean motion:   14.27093992 rev/day
Decay rate:       1.74e-06 rev/day^2
Epoch rev:           86416
Checksum:              312

Satellite: NOAA-11
Catalog number: 19531
Epoch time:      03121.44722776
Element set:     592
Inclination:       98.8917 deg
RA of node:       202.5549 deg
Eccentricity:    0.0011625
Arg of perigee:     3.5725 deg
Mean anomaly:     356.5527 deg
Mean motion:   14.14572043 rev/day
Decay rate:       1.87e-06 rev/day^2
Epoch rev:           75296
Checksum:              308

Satellite: NOAA-12
Catalog number: 21263
Epoch time:      03121.44889307
Element set:      63
Inclination:       98.6352 deg
RA of node:       109.9108 deg
Eccentricity:    0.0012595
Arg of perigee:   167.5669 deg
Mean anomaly:     192.5824 deg
Mean motion:   14.25132444 rev/day
Decay rate:       3.67e-06 rev/day^2
Epoch rev:           62145
Checksum:              304

Satellite: MET-3/5
Catalog number: 21655
Epoch time:      03120.93526443
Element set:    0530
Inclination:      082.5580 deg
RA of node:       348.4570 deg
Eccentricity:    0.0014368
Arg of perigee:   023.3239 deg
Mean anomaly:     336.8531 deg
Mean motion:   13.16982946 rev/day
Decay rate:        5.1e-07 rev/day^2
Epoch rev:           56287
Checksum:              303

Satellite: MET-2/21
Catalog number: 22782
Epoch time:      03121.05848969
Element set:     582
Inclination:       82.5489 deg
RA of node:       158.2140 deg
Eccentricity:    0.0023339
Arg of perigee:   142.7142 deg
Mean anomaly:     217.5641 deg
Mean motion:   13.83538554 rev/day
Decay rate:        3.7e-07 rev/day^2
Epoch rev:           48797
Checksum:              322

Satellite: OKEAN-4
Catalog number: 23317
Epoch time:      03121.40089236
Element set:     205
Inclination:       82.5385 deg
RA of node:       262.0562 deg
Eccentricity:    0.0022792
Arg of perigee:   171.4478 deg
Mean anomaly:     188.7132 deg
Mean motion:   14.81117432 rev/day
Decay rate:      2.050e-05 rev/day^2
Epoch rev:           46073
Checksum:              272

Satellite: NOAA-14
Catalog number: 23455
Epoch time:      03121.47258211
Element set:     612
Inclination:       99.1823 deg
RA of node:       141.9267 deg
Eccentricity:    0.0009864
Arg of perigee:    32.8528 deg
Mean anomaly:     327.3255 deg
Mean motion:   14.13325243 rev/day
Decay rate:       1.70e-06 rev/day^2
Epoch rev:           42963
Checksum:              284

Satellite: SICH-1
Catalog number: 23657
Epoch time:      03120.91044153
Element set:    0048
Inclination:      082.5314 deg
RA of node:       043.2962 deg
Eccentricity:    0.0024804
Arg of perigee:   154.8146 deg
Mean anomaly:     205.4279 deg
Mean motion:   14.80155941 rev/day
Decay rate:      1.642e-05 rev/day^2
Epoch rev:           41278
Checksum:              276

Satellite: NOAA-15
Catalog number: 25338
Epoch time:      03121.46581405
Element set:      98
Inclination:       98.5425 deg
RA of node:       141.6559 deg
Eccentricity:    0.0011605
Arg of perigee:   106.1625 deg
Mean anomaly:     254.0835 deg
Mean motion:   14.24279415 rev/day
Decay rate:       2.29e-06 rev/day^2
Epoch rev:           25803
Checksum:              289

Satellite: RESURS
Catalog number: 25394
Epoch time:      03120.95986678
Element set:    0509
Inclination:      098.6204 deg
RA of node:       197.5281 deg
Eccentricity:    0.0000433
Arg of perigee:   256.0302 deg
Mean anomaly:     104.0828 deg
Mean motion:   14.23904636 rev/day
Decay rate:       1.67e-06 rev/day^2
Epoch rev:           24969
Checksum:              305

Satellite: FENGYUN1
Catalog number: 25730
Epoch time:      03120.95274522
Element set:    0825
Inclination:      098.6271 deg
RA of node:       142.6566 deg
Eccentricity:    0.0014718
Arg of perigee:   155.5782 deg
Mean anomaly:     204.6096 deg
Mean motion:   14.11742198 rev/day
Decay rate:        5.1e-07 rev/day^2
Epoch rev:           20470
Checksum:              286

Satellite: OKEAN-0
Catalog number: 25860
Epoch time:      03120.91021179
Element set:    0052
Inclination:      097.8536 deg
RA of node:       166.1016 deg
Eccentricity:    0.0001160
Arg of perigee:   115.7946 deg
Mean anomaly:     244.3382 deg
Mean motion:   14.72711302 rev/day
Decay rate:       8.33e-06 rev/day^2
Epoch rev:           20343
Checksum:              254

Satellite: NOAA-16
Catalog number: 26536
Epoch time:      03121.08434497
Element set:     310
Inclination:       98.9119 deg
RA of node:        68.8839 deg
Eccentricity:    0.0011390
Arg of perigee:   103.0276 deg
Mean anomaly:     257.2168 deg
Mean motion:   14.11944734 rev/day
Decay rate:       -9.3e-07 rev/day^2
Epoch rev:           13424
Checksum:              298

Satellite: NOAA-17
Catalog number: 27453
Epoch time:      03121.41032923
Element set:     394
Inclination:       98.7448 deg
RA of node:       192.1980 deg
Eccentricity:    0.0012338
Arg of perigee:   144.9997 deg
Mean anomaly:     215.1994 deg
Mean motion:   14.23339032 rev/day
Decay rate:       3.23e-06 rev/day^2
Epoch rev:            4418
Checksum:              302



Read previous mail | Read next mail


 19.09.2025 16:04:26lGo back Go up